Time,TemperatureF,DewpointF,PressureIn,WindDirection,WindDirectionDegrees,WindSpeedMPH,WindSpeedGustMPH,Humidity,HourlyPrecipIn,Conditions,Clouds,dailyrainin,SoftwareType,DateUTC
2013-03-03 00:00:00,44.8,39.3,29.84,NNW,338,0.0,0.0,81,0.00,CLR,SKC,0.00,WeatherDisplay:10.37,2013-03-03 00:00:00,
2013-03-03 00:05:00,44.8,39.3,29.84,NNW,338,0.0,0.0,81,0.00,CLR,SKC,0.00,WeatherDisplay:10.37,2013-03-03 00:05:00,
2013-03-03 00:10:00,44.8,39.3,29.84,NNW,338,0.0,0.0,81,0.00,CLR,SKC,0.00,WeatherDisplay:10.37,2013-03-03 00:10:00,
2013-03-03 00:15:00,44.6,39.1,29.84,NNW,338,0.0,0.0,81,0.00,CLR,SKC,0.00,WeatherDisplay:10.37,2013-03-03 00:15:00,
2013-03-03 00:20:00,44.6,39.1,29.84,NNW,338,0.0,0.0,81,0.00,CLR,SKC,0.00,WeatherDisplay:10.37,2013-03-03 00:20:00,
2013-03-03 00:25:00,44.4,39.0,29.83,NNW,338,0.0,0.0,81,0.00,CLR,SKC,0.00,WeatherDisplay:10.37,2013-03-03 00:25:00,
2013-03-03 00:30:00,44.4,39.0,29.83,NNW,338,0.0,0.0,81,0.00,CLR,SKC,0.00,WeatherDisplay:10.37,2013-03-03 00:30:00,
2013-03-03 00:35:00,44.4,39.3,29.84,NNW,338,0.0,0.0,82,0.00,CLR,SKC,0.00,WeatherDisplay:10.37,2013-03-03 00:35:00,
2013-03-03 00:40:00,44.4,39.3,29.84,NNW,338,0.0,0.0,82,0.00,CLR,SKC,0.00,WeatherDisplay:10.37,2013-03-03 00:40:00,
2013-03-03 00:45:00,44.4,39.3,29.84,NNW,338,0.0,0.0,82,0.00,CLR,SKC,0.00,WeatherDisplay:10.37,2013-03-03 00:45:00,
2013-03-03 00:50:00,44.2,39.1,29.84,NNW,338,0.0,0.0,82,0.00,CLR,SKC,0.00,WeatherDisplay:10.37,2013-03-03 00:50:00,
2013-03-03 00:55:00,44.2,39.1,29.84,NNW,338,0.0,0.0,82,0.00,CLR,SKC,0.00,WeatherDisplay:10.37,2013-03-03 00:55:00,
2013-03-03 01:00:00,44.2,39.4,29.84,NNW,338,0.0,0.0,83,0.00,CLR,SKC,0.00,WeatherDisplay:10.37,2013-03-03 01:00:00,
2013-03-03 01:05:00,44.4,39.6,29.84,NNW,338,0.0,0.0,83,0.00,CLR,SKC,0.00,WeatherDisplay:10.37,2013-03-03 01:05:00,
2013-03-03 01:10:00,44.4,39.6,29.84,NNW,338,0.0,0.0,83,0.00,CLR,SKC,0.00,WeatherDisplay:10.37,2013-03-03 01:10:00,
2013-03-03 01:15:00,44.4,39.6,29.84,NNW,338,0.0,0.0,83,0.00,CLR,SKC,0.00,WeatherDisplay:10.37,2013-03-03 01:15:00,
2013-03-03 01:20:00,44.4,39.6,29.84,NNW,338,0.0,0.0,83,0.00,CLR,SKC,0.00,WeatherDisplay:10.37,2013-03-03 01:20:00,
2013-03-03 01:25:00,44.4,39.6,29.84,NNW,338,0.0,0.0,83,0.00,CLR,SKC,0.00,WeatherDisplay:10.37,2013-03-03 01:25:00,
2013-03-03 01:30:00,44.4,39.6,29.84,NNW,338,0.0,0.0,83,0.00,CLR,SKC,0.00,WeatherDisplay:10.37,2013-03-03 01:30:00,
2013-03-03 01:35:00,44.4,39.6,29.83,NNW,338,0.0,0.0,83,0.00,CLR,SKC,0.00,WeatherDisplay:10.37,2013-03-03 01:35:00,
2013-03-03 01:40:00,44.2,39.4,29.83,NNW,338,0.0,0.0,83,0.00,CLR,SKC,0.00,WeatherDisplay:10.37,2013-03-03 01:40:00,
2013-03-03 01:45:00,44.2,39.4,29.83,NNW,338,0.0,0.0,83,0.00,CLR,SKC,0.00,WeatherDisplay:10.37,2013-03-03 01:45:00,
2013-03-03 01:50:00,44.2,39.4,29.83,NNW,338,0.0,0.0,83,0.00,CLR,SKC,0.00,WeatherDisplay:10.37,2013-03-03 01:50:00,
2013-03-03 01:55:00,44.1,39.2,29.83,NNW,338,0.0,0.0,83,0.00,CLR,SKC,0.00,WeatherDisplay:10.37,2013-03-03 01:55:00,
2013-03-03 02:00:00,44.1,39.2,29.83,NNW,338,0.0,0.0,83,0.00,CLR,SKC,0.00,WeatherDisplay:10.37,2013-03-03 02:00:00,
2013-03-03 02:05:00,44.1,39.2,29.83,NNW,338,0.0,0.0,83,0.00,CLR,SKC,0.00,WeatherDisplay:10.37,2013-03-03 02:05:00,
2013-03-03 02:10:00,43.9,39.1,29.83,NNW,338,0.0,0.0,83,0.00,CLR,SKC,0.00,WeatherDisplay:10.37,2013-03-03 02:10:00,
2013-03-03 02:15:00,43.9,39.1,29.83,NNW,338,0.0,0.0,83,0.00,CLR,SKC,0.00,WeatherDisplay:10.37,2013-03-03 02:15:00,
2013-03-03 02:20:00,43.9,39.4,29.83,NNW,338,0.0,0.0,84,0.00,CLR,SKC,0.00,WeatherDisplay:10.37,2013-03-03 02:20:00,
2013-03-03 02:25:00,43.7,39.2,29.83,NNW,338,0.0,0.0,84,0.00,CLR,SKC,0.00,WeatherDisplay:10.37,2013-03-03 02:25:00,
2013-03-03 02:30:00,43.7,39.2,29.83,NNW,338,0.0,0.0,84,0.00,CLR,SKC,0.00,WeatherDisplay:10.37,2013-03-03 02:30:00,
2013-03-03 02:35:00,43.7,39.2,29.82,NNW,338,0.0,0.0,84,0.00,CLR,SKC,0.00,WeatherDisplay:10.37,2013-03-03 02:35:00,
2013-03-03 02:40:00,43.5,39.0,29.82,NNW,338,0.0,0.0,84,0.00,CLR,SKC,0.00,WeatherDisplay:10.37,2013-03-03 02:40:00,
2013-03-03 02:45:00,43.5,39.0,29.82,NNW,338,0.0,0.0,84,0.00,CLR,SKC,0.00,WeatherDisplay:10.37,2013-03-03 02:45:00,
2013-03-03 02:50:00,43.5,39.0,29.82,NNW,338,0.0,0.0,84,0.00,CLR,SKC,0.00,WeatherDisplay:10.37,2013-03-03 02:50:00,
2013-03-03 02:55:00,43.5,39.0,29.82,NNW,338,0.0,0.0,84,0.00,CLR,SKC,0.00,WeatherDisplay:10.37,2013-03-03 02:55:00,
2013-03-03 03:00:00,43.5,39.0,29.82,NNW,338,0.0,0.0,84,0.00,CLR,SKC,0.00,WeatherDisplay:10.37,2013-03-03 03:00:00,
2013-03-03 03:05:00,43.3,38.8,29.82,NNW,338,0.0,0.0,84,0.00,CLR,SKC,0.00,WeatherDisplay:10.37,2013-03-03 03:05:00,
2013-03-03 03:10:00,43.3,38.8,29.82,NNW,338,0.0,0.0,84,0.00,CLR,SKC,0.00,WeatherDisplay:10.37,2013-03-03 03:10:00,
2013-03-03 03:15:00,43.3,38.8,29.82,NNW,338,0.0,0.0,84,0.00,CLR,SKC,0.00,WeatherDisplay:10.37,2013-03-03 03:15:00,
2013-03-03 03:20:00,43.3,38.8,29.82,NNW,338,0.0,0.0,84,0.00,CLR,SKC,0.00,WeatherDisplay:10.37,2013-03-03 03:20:00,
2013-03-03 03:25:00,43.3,38.8,29.82,NNW,338,0.0,0.0,84,0.00,CLR,SKC,0.00,WeatherDisplay:10.37,2013-03-03 03:25:00,
2013-03-03 03:30:00,43.3,39.1,29.82,NNW,338,0.0,0.0,85,0.00,CLR,SKC,0.00,WeatherDisplay:10.37,2013-03-03 03:30:00,
2013-03-03 03:35:00,43.5,39.3,29.82,NNW,338,0.0,0.0,85,0.00,CLR,SKC,0.00,WeatherDisplay:10.37,2013-03-03 03:35:00,
2013-03-03 03:40:00,43.3,38.8,29.82,NNW,338,0.0,0.0,84,0.00,CLR,SKC,0.00,WeatherDisplay:10.37,2013-03-03 03:40:00,
2013-03-03 03:45:00,43.3,38.8,29.82,NNW,338,0.0,0.0,84,0.00,CLR,SKC,0.00,WeatherDisplay:10.37,2013-03-03 03:45:00,
2013-03-03 03:50:00,43.3,38.8,29.81,NNW,338,0.0,0.0,84,0.00,CLR,SKC,0.00,WeatherDisplay:10.37,2013-03-03 03:50:00,
2013-03-03 03:55:00,43.2,38.7,29.81,NNW,338,0.0,0.0,84,0.00,CLR,SKC,0.00,WeatherDisplay:10.37,2013-03-03 03:55:00,
2013-03-03 04:00:00,43.2,38.7,29.81,NNW,338,0.0,0.0,84,0.00,CLR,SKC,0.00,WeatherDisplay:10.37,2013-03-03 04:00:00,
2013-03-03 04:05:00,43.0,38.5,29.81,NNW,338,0.0,0.0,84,0.00,CLR,SKC,0.00,WeatherDisplay:10.37,2013-03-03 04:05:00,
2013-03-03 04:11:00,43.0,38.5,29.81,NNW,338,0.0,0.0,84,0.00,CLR,SKC,0.00,WeatherDisplay:10.37,2013-03-03 04:11:00,
2013-03-03 04:16:00,43.0,38.5,29.81,NNW,338,0.0,0.0,84,0.00,CLR,SKC,0.00,WeatherDisplay:10.37,2013-03-03 04:16:00,
2013-03-03 04:21:00,42.8,38.3,29.81,NNW,338,0.0,0.0,84,0.00,CLR,SKC,0.00,WeatherDisplay:10.37,2013-03-03 04:21:00,
2013-03-03 04:26:00,42.6,38.4,29.81,NNW,338,0.0,0.0,85,0.00,CLR,SKC,0.00,WeatherDisplay:10.37,2013-03-03 04:26:00,
2013-03-03 04:31:00,42.6,38.4,29.81,NNW,338,0.0,0.0,85,0.00,CLR,SKC,0.00,WeatherDisplay:10.37,2013-03-03 04:31:00,
2013-03-03 04:36:00,42.6,38.4,29.81,NNW,338,0.0,0.0,85,0.00,CLR,SKC,0.00,WeatherDisplay:10.37,2013-03-03 04:36:00,
2013-03-03 04:41:00,42.6,38.4,29.81,NNW,338,0.0,0.0,85,0.00,CLR,SKC,0.00,WeatherDisplay:10.37,2013-03-03 04:41:00,
2013-03-03 04:46:00,42.6,38.4,29.82,NNW,338,0.0,0.0,85,0.00,CLR,SKC,0.00,WeatherDisplay:10.37,2013-03-03 04:46:00,
2013-03-03 04:51:00,42.6,38.4,29.81,NNW,338,0.0,0.0,85,0.00,CLR,SKC,0.00,WeatherDisplay:10.37,2013-03-03 04:51:00,
2013-03-03 04:56:00,42.6,38.4,29.81,NNW,338,0.0,0.0,85,0.00,CLR,SKC,0.00,WeatherDisplay:10.37,2013-03-03 04:56:00,
2013-03-03 05:00:00,42.6,38.4,29.81,NNW,338,0.0,0.0,85,0.00,CLR,SKC,0.00,WeatherDisplay:10.37,2013-03-03 05:00:00,
2013-03-03 05:05:00,42.4,38.2,29.81,NNW,338,0.0,0.0,85,0.00,CLR,SKC,0.00,WeatherDisplay:10.37,2013-03-03 05:05:00,
2013-03-03 05:10:00,42.4,38.2,29.81,NNW,338,0.0,0.0,85,0.00,CLR,SKC,0.00,WeatherDisplay:10.37,2013-03-03 05:10:00,
2013-03-03 05:15:00,42.4,38.2,29.81,NNW,338,0.0,0.0,85,0.00,CLR,SKC,0.00,WeatherDisplay:10.37,2013-03-03 05:15:00,
2013-03-03 05:20:00,42.4,38.2,29.81,NNW,338,0.0,0.0,85,0.00,CLR,SKC,0.00,WeatherDisplay:10.37,2013-03-03 05:20:00,
2013-03-03 05:25:00,42.4,38.2,29.81,NNW,338,0.0,0.0,85,0.00,CLR,SKC,0.00,WeatherDisplay:10.37,2013-03-03 05:25:00,
2013-03-03 05:30:00,42.4,38.2,29.81,NNW,338,0.0,0.0,85,0.00,CLR,SKC,0.00,WeatherDisplay:10.37,2013-03-03 05:30:00,
2013-03-03 05:35:00,42.4,38.2,29.81,NNW,338,0.0,0.0,85,0.00,CLR,SKC,0.00,WeatherDisplay:10.37,2013-03-03 05:35:00,
2013-03-03 05:40:00,42.4,38.2,29.81,NNW,338,0.0,0.0,85,0.00,CLR,SKC,0.00,WeatherDisplay:10.37,2013-03-03 05:40:00,
2013-03-03 05:45:00,42.4,38.2,29.81,NNW,338,0.0,0.0,85,0.00,CLR,SKC,0.00,WeatherDisplay:10.37,2013-03-03 05:45:00,
2013-03-03 05:50:00,42.3,38.4,29.81,NNW,338,0.0,0.0,86,0.00,CLR,SKC,0.00,WeatherDisplay:10.37,2013-03-03 05:50:00,
2013-03-03 05:55:00,42.3,38.4,29.81,NNW,338,0.0,0.0,86,0.00,CLR,SKC,0.00,WeatherDisplay:10.37,2013-03-03 05:55:00,
2013-03-03 06:00:00,42.3,38.4,29.80,NNW,338,0.0,0.0,86,0.00,CLR,SKC,0.00,WeatherDisplay:10.37,2013-03-03 06:00:00,
2013-03-03 06:05:00,42.4,38.5,29.80,NNW,338,0.0,0.0,86,0.00,CLR,SKC,0.00,WeatherDisplay:10.37,2013-03-03 06:05:00,
2013-03-03 06:10:00,42.4,38.5,29.80,NNW,338,0.0,0.0,86,0.00,CLR,SKC,0.00,WeatherDisplay:10.37,2013-03-03 06:10:00,
2013-03-03 06:15:00,42.4,38.5,29.80,NNW,338,0.0,0.0,86,0.00,CLR,SKC,0.00,WeatherDisplay:10.37,2013-03-03 06:15:00,
2013-03-03 06:20:00,42.4,38.5,29.80,NNW,338,0.0,0.0,86,0.00,CLR,SKC,0.00,WeatherDisplay:10.37,2013-03-03 06:20:00,
2013-03-03 06:25:00,42.4,38.5,29.80,NNW,338,0.0,0.0,86,0.00,CLR,SKC,0.00,WeatherDisplay:10.37,2013-03-03 06:25:00,
2013-03-03 06:30:00,42.4,38.5,29.81,NNW,338,0.0,0.0,86,0.00,CLR,SKC,0.00,WeatherDisplay:10.37,2013-03-03 06:30:00,
2013-03-03 06:35:00,42.4,38.5,29.81,NNW,338,0.0,0.0,86,0.00,CLR,SKC,0.00,WeatherDisplay:10.37,2013-03-03 06:35:00,
2013-03-03 06:40:00,42.3,38.4,29.81,NNW,338,0.0,0.0,86,0.00,CLR,SKC,0.00,WeatherDisplay:10.37,2013-03-03 06:40:00,
2013-03-03 06:45:00,42.1,38.2,29.81,NNW,338,0.0,0.0,86,0.00,CLR,SKC,0.00,WeatherDisplay:10.37,2013-03-03 06:45:00,
2013-03-03 06:50:00,42.1,38.2,29.80,NNW,338,0.0,0.0,86,0.00,CLR,SKC,0.00,WeatherDisplay:10.37,2013-03-03 06:50:00,
2013-03-03 06:56:00,42.1,38.2,29.80,NNW,338,0.0,0.0,86,0.00,CLR,SKC,0.00,WeatherDisplay:10.37,2013-03-03 06:56:00,
2013-03-03 07:01:00,42.1,38.2,29.80,NNW,338,0.0,0.0,86,0.00,CLR,SKC,0.00,WeatherDisplay:10.37,2013-03-03 07:01:00,
2013-03-03 07:06:00,42.1,38.5,29.81,NNW,338,0.0,0.0,87,0.00,CLR,SKC,0.00,WeatherDisplay:10.37,2013-03-03 07:06:00,
2013-03-03 07:11:00,42.3,38.7,29.81,NNW,338,0.0,0.0,87,0.00,CLR,SKC,0.00,WeatherDisplay:10.37,2013-03-03 07:11:00,
2013-03-03 07:16:00,42.3,38.7,29.80,NNW,338,0.0,0.0,87,0.00,CLR,SKC,0.00,WeatherDisplay:10.37,2013-03-03 07:16:00,
2013-03-03 07:21:00,42.3,38.7,29.81,NNW,338,0.0,0.0,87,0.00,CLR,SKC,0.00,WeatherDisplay:10.37,2013-03-03 07:21:00,
2013-03-03 07:26:00,42.4,38.8,29.81,NNW,338,0.0,0.0,87,0.00,CLR,SKC,0.00,WeatherDisplay:10.37,2013-03-03 07:26:00,
2013-03-03 07:31:00,42.4,39.1,29.81,NNW,338,0.0,0.0,88,0.00,CLR,SKC,0.00,WeatherDisplay:10.37,2013-03-03 07:31:00,
2013-03-03 07:36:00,42.4,39.1,29.81,NNW,338,0.0,0.0,88,0.00,CLR,SKC,0.00,WeatherDisplay:10.37,2013-03-03 07:36:00,
2013-03-03 07:41:00,42.4,39.1,29.81,NNW,338,0.0,0.0,88,0.00,CLR,SKC,0.00,WeatherDisplay:10.37,2013-03-03 07:41:00,
2013-03-03 07:46:00,42.4,38.8,29.81,North,0,0.0,0.0,87,0.00,CLR,SKC,0.00,WeatherDisplay:10.37,2013-03-03 07:46:00,
2013-03-03 07:51:00,42.4,38.8,29.81,North,0,0.0,0.0,87,0.00,CLR,SKC,0.00,WeatherDisplay:10.37,2013-03-03 07:51:00,
2013-03-03 07:56:00,42.6,39.3,29.81,North,0,0.0,0.0,88,0.00,CLR,SKC,0.00,WeatherDisplay:10.37,2013-03-03 07:56:00,
2013-03-03 08:01:00,42.6,39.3,29.80,North,0,0.0,0.0,88,0.00,CLR,SKC,0.00,WeatherDisplay:10.37,2013-03-03 08:01:00,
2013-03-03 08:06:00,42.6,39.3,29.80,North,0,0.0,0.0,88,0.00,CLR,SKC,0.00,WeatherDisplay:10.37,2013-03-03 08:06:00,
2013-03-03 08:11:00,42.6,39.3,29.80,North,0,0.0,0.0,88,0.00,CLR,SKC,0.00,WeatherDisplay:10.37,2013-03-03 08:11:00,
2013-03-03 08:16:00,43.0,39.7,29.80,North,0,0.0,0.0,88,0.00,CLR,SKC,0.00,WeatherDisplay:10.37,2013-03-03 08:16:00,
2013-03-03 08:21:00,43.0,39.7,29.80,North,0,0.0,0.0,88,0.00,CLR,SKC,0.00,WeatherDisplay:10.37,2013-03-03 08:21:00,
2013-03-03 08:26:00,43.2,39.8,29.80,North,0,0.0,0.0,88,0.00,CLR,SKC,0.00,WeatherDisplay:10.37,2013-03-03 08:26:00,
2013-03-03 08:31:00,43.5,40.2,29.80,North,0,0.0,0.0,88,0.00,CLR,SKC,0.00,WeatherDisplay:10.37,2013-03-03 08:31:00,
2013-03-03 08:36:00,43.5,40.2,29.80,North,0,0.0,0.0,88,0.00,CLR,SKC,0.00,WeatherDisplay:10.37,2013-03-03 08:36:00,
2013-03-03 08:41:00,43.7,40.4,29.80,North,0,0.0,0.0,88,0.00,CLR,SKC,0.00,WeatherDisplay:10.37,2013-03-03 08:41:00,
2013-03-03 08:46:00,43.9,40.6,29.80,North,0,0.0,0.0,88,0.00,CLR,SKC,0.00,WeatherDisplay:10.37,2013-03-03 08:46:00,
2013-03-03 08:51:00,44.1,40.7,29.81,North,0,0.0,0.0,88,0.00,CLR,SKC,0.00,WeatherDisplay:10.37,2013-03-03 08:51:00,
2013-03-03 08:56:00,44.1,40.7,29.81,North,0,0.0,0.0,88,0.00,CLR,SKC,0.00,WeatherDisplay:10.37,2013-03-03 08:56:00,
2013-03-03 09:01:00,44.2,40.9,29.81,North,0,0.0,0.0,88,0.00,CLR,SKC,0.00,WeatherDisplay:10.37,2013-03-03 09:01:00,
2013-03-03 09:06:00,44.2,40.9,29.81,North,0,0.0,0.0,88,0.00,CLR,SKC,0.00,WeatherDisplay:10.37,2013-03-03 09:06:00,
2013-03-03 09:11:00,44.4,40.8,29.81,North,0,0.0,0.0,87,0.00,CLR,SKC,0.00,WeatherDisplay:10.37,2013-03-03 09:11:00,
2013-03-03 09:16:00,44.8,41.4,29.81,North,0,0.0,0.0,88,0.00,CLR,SKC,0.00,WeatherDisplay:10.37,2013-03-03 09:16:00,
2013-03-03 09:21:00,45.0,41.6,29.81,North,0,0.0,0.0,88,0.00,CLR,SKC,0.00,WeatherDisplay:10.37,2013-03-03 09:21:00,
2013-03-03 09:26:00,45.1,41.8,29.81,North,0,0.0,0.0,88,0.00,CLR,SKC,0.00,WeatherDisplay:10.37,2013-03-03 09:26:00,
2013-03-03 09:31:00,45.3,42.0,29.81,North,0,0.0,0.0,88,0.00,CLR,SKC,0.00,WeatherDisplay:10.37,2013-03-03 09:31:00,
2013-03-03 09:36:00,45.3,42.0,29.81,North,0,0.0,0.0,88,0.00,CLR,SKC,0.00,WeatherDisplay:10.37,2013-03-03 09:36:00,
2013-03-03 09:41:00,45.5,41.9,29.81,North,0,0.0,0.0,87,0.00,CLR,SKC,0.00,WeatherDisplay:10.37,2013-03-03 09:41:00,
2013-03-03 09:46:00,45.7,42.0,29.81,North,0,0.0,0.0,87,0.00,CLR,SKC,0.00,WeatherDisplay:10.37,2013-03-03 09:46:00,
2013-03-03 09:51:00,46.0,42.4,29.81,North,0,0.0,0.0,87,0.00,CLR,SKC,0.00,WeatherDisplay:10.37,2013-03-03 09:51:00,
2013-03-03 09:56:00,46.0,42.4,29.81,North,0,0.0,0.0,87,0.00,CLR,SKC,0.00,WeatherDisplay:10.37,2013-03-03 09:56:00,
2013-03-03 10:01:00,46.2,42.6,29.81,North,0,0.0,0.0,87,0.00,CLR,SKC,0.00,WeatherDisplay:10.37,2013-03-03 10:01:00,
2013-03-03 10:06:00,46.2,42.6,29.81,North,0,0.0,0.0,87,0.00,CLR,SKC,0.00,WeatherDisplay:10.37,2013-03-03 10:06:00,
2013-03-03 10:11:00,46.6,42.9,29.80,North,0,0.0,0.0,87,0.00,CLR,SKC,0.00,WeatherDisplay:10.37,2013-03-03 10:11:00,
2013-03-03 10:16:00,46.6,42.9,29.81,NNW,338,0.0,0.0,87,0.00,CLR,SKC,0.00,WeatherDisplay:10.37,2013-03-03 10:16:00,
2013-03-03 10:21:00,46.6,42.6,29.80,NNW,338,0.0,0.0,86,0.00,CLR,SKC,0.00,WeatherDisplay:10.37,2013-03-03 10:21:00,
2013-03-03 10:26:00,46.6,42.6,29.80,NW,315,0.0,0.0,86,0.00,CLR,SKC,0.00,WeatherDisplay:10.37,2013-03-03 10:26:00,
2013-03-03 10:31:00,46.6,42.6,29.80,NW,315,0.0,0.0,86,0.00,CLR,SKC,0.00,WeatherDisplay:10.37,2013-03-03 10:31:00,
2013-03-03 10:36:00,46.6,42.6,29.80,NW,315,0.0,0.0,86,0.00,CLR,SKC,0.00,WeatherDisplay:10.37,2013-03-03 10:36:00,
2013-03-03 10:41:00,46.8,42.8,29.80,NW,315,0.0,0.0,86,0.00,CLR,SKC,0.00,WeatherDisplay:10.37,2013-03-03 10:41:00,
2013-03-03 10:46:00,46.8,42.8,29.80,NW,315,0.0,0.0,86,0.00,CLR,SKC,0.00,WeatherDisplay:10.37,2013-03-03 10:46:00,
2013-03-03 10:51:00,46.9,43.0,29.80,NW,315,0.0,0.0,86,0.00,CLR,SKC,0.00,WeatherDisplay:10.37,2013-03-03 10:51:00,
2013-03-03 10:56:00,47.1,43.1,29.80,WNW,292,0.0,0.0,86,0.00,CLR,SKC,0.00,WeatherDisplay:10.37,2013-03-03 10:56:00,
2013-03-03 11:01:00,47.1,43.1,29.80,WNW,292,0.0,0.0,86,0.00,CLR,SKC,0.00,WeatherDisplay:10.37,2013-03-03 11:01:00,
2013-03-03 11:06:00,47.3,43.3,29.80,West,270,0.0,0.0,86,0.00,CLR,SKC,0.00,WeatherDisplay:10.37,2013-03-03 11:06:00,
2013-03-03 11:11:00,47.5,43.5,29.80,NW,315,0.0,0.0,86,0.00,CLR,SKC,0.00,WeatherDisplay:10.37,2013-03-03 11:11:00,
2013-03-03 11:16:00,47.8,43.9,29.80,WNW,292,0.0,0.0,86,0.00,CLR,SKC,0.00,WeatherDisplay:10.37,2013-03-03 11:16:00,
2013-03-03 11:21:00,47.8,43.5,29.80,NW,315,0.0,0.0,85,0.00,CLR,SKC,0.00,WeatherDisplay:10.37,2013-03-03 11:21:00,
2013-03-03 11:26:00,48.0,43.7,29.80,WNW,292,0.0,0.0,85,0.00,CLR,SKC,0.00,WeatherDisplay:10.37,2013-03-03 11:26:00,
2013-03-03 11:31:00,48.4,44.1,29.80,West,270,0.0,0.0,85,0.00,CLR,SKC,0.00,WeatherDisplay:10.37,2013-03-03 11:31:00,
2013-03-03 11:36:00,48.6,44.3,29.80,NW,315,0.0,0.0,85,0.00,CLR,SKC,0.00,WeatherDisplay:10.37,2013-03-03 11:36:00,
2013-03-03 11:41:00,48.6,43.9,29.80,WNW,292,0.0,0.0,84,0.00,CLR,SKC,0.00,WeatherDisplay:10.37,2013-03-03 11:41:00,
2013-03-03 11:46:00,48.9,44.3,29.80,WNW,292,0.0,0.0,84,0.00,CLR,SKC,0.00,WeatherDisplay:10.37,2013-03-03 11:46:00,
2013-03-03 11:51:00,49.3,44.6,29.80,NW,315,0.0,0.0,84,0.00,CLR,SKC,0.00,WeatherDisplay:10.37,2013-03-03 11:51:00,
2013-03-03 11:56:00,49.6,45.0,29.79,NW,315,0.0,0.0,84,0.00,CLR,SKC,0.00,WeatherDisplay:10.37,2013-03-03 11:56:00,
2013-03-03 12:01:00,49.8,44.9,29.79,NNW,338,0.0,0.0,83,0.00,CLR,SKC,0.00,WeatherDisplay:10.37,2013-03-03 12:01:00,
2013-03-03 12:06:00,50.2,44.9,29.79,WNW,292,0.0,0.0,82,0.00,CLR,SKC,0.00,WeatherDisplay:10.37,2013-03-03 12:06:00,
2013-03-03 12:11:00,50.2,44.9,29.79,NW,315,0.0,0.0,82,0.00,CLR,SKC,0.00,WeatherDisplay:10.37,2013-03-03 12:11:00,
2013-03-03 12:16:00,50.2,44.6,29.79,West,270,0.0,0.0,81,0.00,CLR,SKC,0.00,WeatherDisplay:10.37,2013-03-03 12:16:00,
2013-03-03 12:21:00,50.2,44.6,29.79,NW,315,0.0,0.0,81,0.00,CLR,SKC,0.00,WeatherDisplay:10.37,2013-03-03 12:21:00,
2013-03-03 12:26:00,50.5,44.6,29.78,NNW,338,0.0,0.0,80,0.00,CLR,SKC,0.00,WeatherDisplay:10.37,2013-03-03 12:26:00,
2013-03-03 12:32:00,50.7,44.8,29.78,WNW,292,0.0,0.0,80,0.00,CLR,SKC,0.00,WeatherDisplay:10.37,2013-03-03 12:32:00,
2013-03-03 12:37:00,50.9,44.6,29.78,SW,225,0.0,0.0,79,0.00,CLR,SKC,0.00,WeatherDisplay:10.37,2013-03-03 12:37:00,
2013-03-03 12:42:00,50.9,44.3,29.78,West,270,0.0,0.0,78,0.00,CLR,SKC,0.00,WeatherDisplay:10.37,2013-03-03 12:42:00,
2013-03-03 12:47:00,50.9,44.3,29.78,West,270,0.0,0.0,78,0.00,CLR,SKC,0.00,WeatherDisplay:10.37,2013-03-03 12:47:00,
2013-03-03 12:52:00,50.7,44.1,29.77,WNW,292,0.0,0.0,78,0.00,CLR,SKC,0.00,WeatherDisplay:10.37,2013-03-03 12:52:00,
2013-03-03 12:57:00,50.9,43.9,29.77,SW,225,0.0,0.0,77,0.00,CLR,SKC,0.00,WeatherDisplay:10.37,2013-03-03 12:57:00,
2013-03-03 13:02:00,51.1,43.8,29.77,WNW,292,0.0,0.0,76,0.00,CLR,SKC,0.00,WeatherDisplay:10.37,2013-03-03 13:02:00,
2013-03-03 13:07:00,51.1,43.4,29.77,West,270,0.0,0.0,75,0.00,CLR,SKC,0.00,WeatherDisplay:10.37,2013-03-03 13:07:00,
2013-03-03 13:12:00,51.4,43.8,29.77,WNW,292,0.0,0.0,75,0.00,CLR,SKC,0.00,WeatherDisplay:10.37,2013-03-03 13:12:00,
2013-03-03 13:17:00,51.4,43.8,29.76,WNW,292,0.0,0.0,75,0.00,CLR,SKC,0.00,WeatherDisplay:10.37,2013-03-03 13:17:00,
2013-03-03 13:22:00,50.9,42.9,29.76,SW,225,0.0,0.0,74,0.00,CLR,SKC,0.00,WeatherDisplay:10.37,2013-03-03 13:22:00,
2013-03-03 13:27:00,50.7,42.7,29.76,SW,225,0.0,0.0,74,0.00,CLR,SKC,0.00,WeatherDisplay:10.37,2013-03-03 13:27:00,
2013-03-03 13:32:00,50.7,42.7,29.76,NW,315,0.0,0.0,74,0.00,CLR,SKC,0.00,WeatherDisplay:10.37,2013-03-03 13:32:00,
2013-03-03 13:37:00,50.7,42.4,29.75,NW,315,0.0,0.0,73,0.00,CLR,SKC,0.00,WeatherDisplay:10.37,2013-03-03 13:37:00,
2013-03-03 13:42:00,51.1,42.7,29.75,WNW,292,0.0,0.0,73,0.00,CLR,SKC,0.00,WeatherDisplay:10.37,2013-03-03 13:42:00,
2013-03-03 13:47:00,51.3,42.9,29.75,NW,315,0.0,0.0,73,0.00,CLR,SKC,0.00,WeatherDisplay:10.37,2013-03-03 13:47:00,
2013-03-03 13:52:00,51.3,42.5,29.75,NNE,22,0.0,0.0,72,0.00,CLR,SKC,0.00,WeatherDisplay:10.37,2013-03-03 13:52:00,
2013-03-03 13:57:00,51.1,42.0,29.75,NW,315,0.0,0.0,71,0.00,CLR,SKC,0.00,WeatherDisplay:10.37,2013-03-03 13:57:00,
2013-03-03 14:02:00,51.3,42.2,29.75,SSW,202,0.0,0.0,71,0.00,CLR,SKC,0.00,WeatherDisplay:10.37,2013-03-03 14:02:00,
2013-03-03 14:07:00,51.3,42.2,29.75,NNW,338,0.0,0.0,71,0.00,CLR,SKC,0.00,WeatherDisplay:10.37,2013-03-03 14:07:00,
2013-03-03 14:12:00,51.3,41.8,29.75,SW,225,0.0,0.0,70,0.00,CLR,SKC,0.00,WeatherDisplay:10.37,2013-03-03 14:12:00,
2013-03-03 14:17:00,50.9,41.5,29.75,NW,315,0.0,0.0,70,0.00,CLR,SKC,0.00,WeatherDisplay:10.37,2013-03-03 14:17:00,
2013-03-03 14:22:00,50.7,41.3,29.75,WNW,292,0.0,0.0,70,0.00,CLR,SKC,0.00,WeatherDisplay:10.37,2013-03-03 14:22:00,
2013-03-03 14:27:00,50.5,40.7,29.75,NW,315,0.0,0.0,69,0.00,CLR,SKC,0.00,WeatherDisplay:10.37,2013-03-03 14:27:00,
2013-03-03 14:32:00,50.2,40.8,29.75,NW,315,0.0,0.0,70,0.00,CLR,SKC,0.00,WeatherDisplay:10.37,2013-03-03 14:32:00,
2013-03-03 14:37:00,50.2,40.8,29.75,WNW,292,0.0,0.0,70,0.00,CLR,SKC,0.00,WeatherDisplay:10.37,2013-03-03 14:37:00,
2013-03-03 14:42:00,49.8,40.4,29.75,WNW,292,0.0,0.0,70,0.00,CLR,SKC,0.00,WeatherDisplay:10.37,2013-03-03 14:42:00,
2013-03-03 14:47:00,49.8,40.4,29.74,NW,315,0.0,0.0,70,0.00,CLR,SKC,0.00,WeatherDisplay:10.37,2013-03-03 14:47:00,
2013-03-03 14:52:00,49.6,40.3,29.74,WNW,292,0.0,0.0,70,0.00,CLR,SKC,0.00,WeatherDisplay:10.37,2013-03-03 14:52:00,
2013-03-03 14:57:00,49.3,39.9,29.74,SW,225,0.0,0.0,70,0.00,CLR,SKC,0.00,WeatherDisplay:10.37,2013-03-03 14:57:00,
2013-03-03 15:02:00,49.1,40.1,29.74,WSW,248,0.0,0.0,71,0.00,CLR,SKC,0.00,WeatherDisplay:10.37,2013-03-03 15:02:00,
2013-03-03 15:07:00,48.9,39.9,29.74,WNW,292,0.0,0.0,71,0.00,CLR,SKC,0.00,WeatherDisplay:10.37,2013-03-03 15:07:00,
2013-03-03 15:12:00,48.7,39.8,29.74,WNW,292,0.0,0.0,71,0.00,CLR,SKC,0.00,WeatherDisplay:10.37,2013-03-03 15:12:00,
2013-03-03 15:17:00,48.7,39.8,29.73,WSW,248,0.0,0.0,71,0.00,CLR,SKC,0.00,WeatherDisplay:10.37,2013-03-03 15:17:00,
2013-03-03 15:22:00,48.6,39.6,29.73,WNW,292,0.0,0.0,71,0.00,CLR,SKC,0.00,WeatherDisplay:10.37,2013-03-03 15:22:00,
2013-03-03 15:27:00,48.6,39.6,29.73,WNW,292,0.0,0.0,71,0.00,CLR,SKC,0.00,WeatherDisplay:10.37,2013-03-03 15:27:00,
2013-03-03 15:32:00,48.6,39.6,29.73,NNW,338,0.0,0.0,71,0.00,CLR,SKC,0.00,WeatherDisplay:10.37,2013-03-03 15:32:00,
2013-03-03 15:37:00,48.6,39.6,29.73,NW,315,0.0,0.0,71,0.00,CLR,SKC,0.00,WeatherDisplay:10.37,2013-03-03 15:37:00,
2013-03-03 15:42:00,48.4,39.4,29.73,NW,315,0.0,0.0,71,0.00,CLR,SKC,0.00,WeatherDisplay:10.37,2013-03-03 15:42:00,
2013-03-03 15:47:00,48.2,39.2,29.73,WNW,292,0.0,0.0,71,0.00,CLR,SKC,0.00,WeatherDisplay:10.37,2013-03-03 15:47:00,
2013-03-03 15:52:00,48.0,39.1,29.73,WSW,248,0.0,0.0,71,0.00,CLR,SKC,0.00,WeatherDisplay:10.37,2013-03-03 15:52:00,
2013-03-03 15:57:00,48.0,39.1,29.73,NW,315,0.0,0.0,71,0.00,CLR,SKC,0.00,WeatherDisplay:10.37,2013-03-03 15:57:00,
2013-03-03 16:02:00,47.8,38.9,29.73,NW,315,0.0,0.0,71,0.00,CLR,SKC,0.00,WeatherDisplay:10.37,2013-03-03 16:02:00,
2013-03-03 16:07:00,47.7,39.1,29.73,WNW,292,0.0,0.0,72,0.00,CLR,SKC,0.00,WeatherDisplay:10.37,2013-03-03 16:07:00,
2013-03-03 16:12:00,47.5,38.9,29.73,NW,315,0.0,0.0,72,0.00,CLR,SKC,0.00,WeatherDisplay:10.37,2013-03-03 16:12:00,
2013-03-03 16:17:00,47.5,38.9,29.72,WNW,292,0.0,0.0,72,0.00,CLR,SKC,0.00,WeatherDisplay:10.37,2013-03-03 16:17:00,
2013-03-03 16:22:00,47.3,38.7,29.72,WNW,292,0.0,0.0,72,0.00,CLR,SKC,0.00,WeatherDisplay:10.37,2013-03-03 16:22:00,
2013-03-03 16:27:00,47.1,38.6,29.72,WNW,292,0.0,0.0,72,0.00,CLR,SKC,0.00,WeatherDisplay:10.37,2013-03-03 16:27:00,
2013-03-03 16:32:00,47.1,38.6,29.72,WNW,292,0.0,0.0,72,0.00,CLR,SKC,0.00,WeatherDisplay:10.37,2013-03-03 16:32:00,
2013-03-03 16:37:00,46.9,38.4,29.72,NW,315,0.0,0.0,72,0.00,CLR,SKC,0.00,WeatherDisplay:10.37,2013-03-03 16:37:00,
2013-03-03 16:42:00,46.8,38.2,29.72,NW,315,0.0,0.0,72,0.00,CLR,SKC,0.00,WeatherDisplay:10.37,2013-03-03 16:42:00,
2013-03-03 16:47:00,46.8,38.2,29.72,NNW,338,0.0,0.0,72,0.00,CLR,SKC,0.00,WeatherDisplay:10.37,2013-03-03 16:47:00,
2013-03-03 16:52:00,46.6,38.4,29.72,NW,315,0.0,0.0,73,0.00,CLR,SKC,0.00,WeatherDisplay:10.37,2013-03-03 16:52:00,
2013-03-03 16:57:00,46.6,38.4,29.72,WNW,292,0.0,0.0,73,0.00,CLR,SKC,0.00,WeatherDisplay:10.37,2013-03-03 16:57:00,
2013-03-03 17:02:00,46.2,38.0,29.72,WNW,292,0.0,0.0,73,0.00,CLR,SKC,0.00,WeatherDisplay:10.37,2013-03-03 17:02:00,
2013-03-03 17:07:00,46.2,38.0,29.72,WNW,292,0.0,0.0,73,0.00,CLR,SKC,0.00,WeatherDisplay:10.37,2013-03-03 17:07:00,
2013-03-03 17:12:00,46.0,37.9,29.73,WNW,292,0.0,0.0,73,0.00,CLR,SKC,0.00,WeatherDisplay:10.37,2013-03-03 17:12:00,
2013-03-03 17:17:00,46.0,38.2,29.72,WNW,292,0.0,0.0,74,0.00,CLR,SKC,0.00,WeatherDisplay:10.37,2013-03-03 17:17:00,
2013-03-03 17:22:00,46.0,38.2,29.72,WNW,292,0.0,0.0,74,0.00,CLR,SKC,0.00,WeatherDisplay:10.37,2013-03-03 17:22:00,
2013-03-03 17:27:00,45.7,37.9,29.72,WNW,292,0.0,0.0,74,0.00,CLR,SKC,0.00,WeatherDisplay:10.37,2013-03-03 17:27:00,
2013-03-03 17:32:00,45.7,37.9,29.72,WNW,292,0.0,0.0,74,0.00,CLR,SKC,0.00,WeatherDisplay:10.37,2013-03-03 17:32:00,
2013-03-03 17:37:00,45.5,37.7,29.72,WNW,292,0.0,0.0,74,0.00,CLR,SKC,0.00,WeatherDisplay:10.37,2013-03-03 17:37:00,
2013-03-03 17:42:00,45.3,37.5,29.72,WNW,292,0.0,0.0,74,0.00,CLR,SKC,0.00,WeatherDisplay:10.37,2013-03-03 17:42:00,
2013-03-03 17:47:00,45.3,37.5,29.72,WNW,292,0.0,0.0,74,0.00,CLR,SKC,0.00,WeatherDisplay:10.37,2013-03-03 17:47:00,
2013-03-03 17:53:00,45.1,37.7,29.72,WNW,292,0.0,0.0,75,0.00,CLR,SKC,0.00,WeatherDisplay:10.37,2013-03-03 17:53:00,
2013-03-03 17:58:00,45.1,37.7,29.72,WNW,292,0.0,0.0,75,0.00,CLR,SKC,0.00,WeatherDisplay:10.37,2013-03-03 17:58:00,
2013-03-03 18:03:00,45.1,37.7,29.72,WNW,292,0.0,0.0,75,0.00,CLR,SKC,0.00,WeatherDisplay:10.37,2013-03-03 18:03:00,
2013-03-03 18:08:00,45.0,37.5,29.72,WNW,292,0.0,0.0,75,0.00,CLR,SKC,0.00,WeatherDisplay:10.37,2013-03-03 18:08:00,
2013-03-03 18:13:00,45.0,37.5,29.72,WNW,292,0.0,0.0,75,0.00,CLR,SKC,0.00,WeatherDisplay:10.37,2013-03-03 18:13:00,
2013-03-03 18:18:00,45.0,37.5,29.72,WNW,292,0.0,0.0,75,0.00,CLR,SKC,0.00,WeatherDisplay:10.37,2013-03-03 18:18:00,
2013-03-03 18:23:00,44.8,37.3,29.72,WNW,292,0.0,0.0,75,0.00,CLR,SKC,0.00,WeatherDisplay:10.37,2013-03-03 18:23:00,
2013-03-03 18:28:00,44.6,37.2,29.72,WNW,292,0.0,0.0,75,0.00,CLR,SKC,0.00,WeatherDisplay:10.37,2013-03-03 18:28:00,
2013-03-03 18:33:00,44.6,37.2,29.72,WNW,292,0.0,0.0,75,0.00,CLR,SKC,0.00,WeatherDisplay:10.37,2013-03-03 18:33:00,
2013-03-03 18:38:00,44.6,37.5,29.72,WNW,292,0.0,0.0,76,0.00,CLR,SKC,0.00,WeatherDisplay:10.37,2013-03-03 18:38:00,
2013-03-03 18:43:00,44.4,37.3,29.72,WNW,292,0.0,0.0,76,0.00,CLR,SKC,0.00,WeatherDisplay:10.37,2013-03-03 18:43:00,
2013-03-03 18:48:00,44.4,37.3,29.72,WNW,292,0.0,0.0,76,0.00,CLR,SKC,0.00,WeatherDisplay:10.37,2013-03-03 18:48:00,
2013-03-03 18:53:00,44.4,37.3,29.72,WNW,292,0.0,0.0,76,0.00,CLR,SKC,0.00,WeatherDisplay:10.37,2013-03-03 18:53:00,
2013-03-03 18:58:00,44.4,37.3,29.72,WNW,292,0.0,0.0,76,0.00,CLR,SKC,0.00,WeatherDisplay:10.37,2013-03-03 18:58:00,
2013-03-03 19:03:00,44.2,37.2,29.72,WNW,292,0.0,0.0,76,0.00,CLR,SKC,0.00,WeatherDisplay:10.37,2013-03-03 19:03:00,
2013-03-03 19:08:00,44.1,37.0,29.71,WNW,292,0.0,0.0,76,0.00,CLR,SKC,0.00,WeatherDisplay:10.37,2013-03-03 19:08:00,
2013-03-03 19:13:00,44.1,37.0,29.71,WNW,292,0.0,0.0,76,0.00,CLR,SKC,0.00,WeatherDisplay:10.37,2013-03-03 19:13:00,
2013-03-03 19:18:00,43.9,37.1,29.71,WNW,292,0.0,0.0,77,0.00,CLR,SKC,0.00,WeatherDisplay:10.37,2013-03-03 19:18:00,
2013-03-03 19:23:00,43.9,37.1,29.70,WNW,292,0.0,0.0,77,0.00,CLR,SKC,0.00,WeatherDisplay:10.37,2013-03-03 19:23:00,
2013-03-03 19:28:00,43.7,37.0,29.70,WNW,292,0.0,0.0,77,0.00,CLR,SKC,0.00,WeatherDisplay:10.37,2013-03-03 19:28:00,
2013-03-03 19:33:00,43.7,37.0,29.70,WNW,292,0.0,0.0,77,0.00,CLR,SKC,0.00,WeatherDisplay:10.37,2013-03-03 19:33:00,
2013-03-03 19:38:00,43.7,37.0,29.70,WNW,292,0.0,0.0,77,0.00,CLR,SKC,0.00,WeatherDisplay:10.37,2013-03-03 19:38:00,
2013-03-03 19:43:00,43.5,36.8,29.70,WNW,292,0.0,0.0,77,0.00,CLR,SKC,0.00,WeatherDisplay:10.37,2013-03-03 19:43:00,
2013-03-03 19:48:00,43.5,36.8,29.70,WNW,292,0.0,0.0,77,0.00,CLR,SKC,0.00,WeatherDisplay:10.37,2013-03-03 19:48:00,
2013-03-03 19:53:00,43.5,36.8,29.70,WNW,292,0.0,0.0,77,0.00,CLR,SKC,0.00,WeatherDisplay:10.37,2013-03-03 19:53:00,
2013-03-03 19:58:00,43.5,37.1,29.70,WNW,292,0.0,0.0,78,0.00,CLR,SKC,0.00,WeatherDisplay:10.37,2013-03-03 19:58:00,
2013-03-03 20:03:00,43.5,37.1,29.70,WNW,292,0.0,0.0,78,0.00,CLR,SKC,0.00,WeatherDisplay:10.37,2013-03-03 20:03:00,
2013-03-03 20:08:00,43.5,37.1,29.70,WNW,292,0.0,0.0,78,0.00,CLR,SKC,0.00,WeatherDisplay:10.37,2013-03-03 20:08:00,
2013-03-03 20:13:00,43.5,37.1,29.70,WNW,292,0.0,0.0,78,0.00,CLR,SKC,0.00,WeatherDisplay:10.37,2013-03-03 20:13:00,
2013-03-03 20:18:00,43.3,36.9,29.70,WNW,292,0.0,0.0,78,0.00,CLR,SKC,0.00,WeatherDisplay:10.37,2013-03-03 20:18:00,
2013-03-03 20:23:00,43.3,36.9,29.70,WNW,292,0.0,0.0,78,0.00,CLR,SKC,0.00,WeatherDisplay:10.37,2013-03-03 20:23:00,
2013-03-03 20:28:00,43.3,36.9,29.70,WNW,292,0.0,0.0,78,0.00,CLR,SKC,0.00,WeatherDisplay:10.37,2013-03-03 20:28:00,
2013-03-03 20:33:00,43.2,36.8,29.70,WNW,292,0.0,0.0,78,0.00,CLR,SKC,0.00,WeatherDisplay:10.37,2013-03-03 20:33:00,
2013-03-03 20:38:00,43.3,36.9,29.70,WNW,292,0.0,0.0,78,0.00,CLR,SKC,0.00,WeatherDisplay:10.37,2013-03-03 20:38:00,
2013-03-03 20:43:00,43.2,36.8,29.70,WNW,292,0.0,0.0,78,0.00,CLR,SKC,0.00,WeatherDisplay:10.37,2013-03-03 20:43:00,
2013-03-03 20:48:00,43.3,36.9,29.70,WNW,292,0.0,0.0,78,0.00,CLR,SKC,0.00,WeatherDisplay:10.37,2013-03-03 20:48:00,
2013-03-03 20:53:00,43.2,36.8,29.71,WNW,292,0.0,0.0,78,0.00,CLR,SKC,0.00,WeatherDisplay:10.37,2013-03-03 20:53:00,
2013-03-03 20:58:00,43.2,36.8,29.71,WNW,292,0.0,0.0,78,0.00,CLR,SKC,0.00,WeatherDisplay:10.37,2013-03-03 20:58:00,
2013-03-03 21:03:00,43.0,36.9,29.71,WNW,292,0.0,0.0,79,0.00,CLR,SKC,0.00,WeatherDisplay:10.37,2013-03-03 21:03:00,
2013-03-03 21:08:00,43.0,36.9,29.70,WNW,292,0.0,0.0,79,0.00,CLR,SKC,0.00,WeatherDisplay:10.37,2013-03-03 21:08:00,
2013-03-03 21:13:00,43.0,36.9,29.71,WNW,292,0.0,0.0,79,0.00,CLR,SKC,0.00,WeatherDisplay:10.37,2013-03-03 21:13:00,
2013-03-03 21:18:00,43.0,36.9,29.71,WNW,292,0.0,0.0,79,0.00,CLR,SKC,0.00,WeatherDisplay:10.37,2013-03-03 21:18:00,
2013-03-03 21:23:00,43.0,36.9,29.71,WNW,292,0.0,0.0,79,0.00,CLR,SKC,0.00,WeatherDisplay:10.37,2013-03-03 21:23:00,
2013-03-03 21:28:00,43.0,36.9,29.71,WNW,292,0.0,0.0,79,0.00,CLR,SKC,0.00,WeatherDisplay:10.37,2013-03-03 21:28:00,
2013-03-03 21:33:00,42.6,36.6,29.71,WNW,292,0.0,0.0,79,0.00,CLR,SKC,0.00,WeatherDisplay:10.37,2013-03-03 21:33:00,
2013-03-03 21:38:00,42.6,36.6,29.71,WNW,292,0.0,0.0,79,0.00,CLR,SKC,0.00,WeatherDisplay:10.37,2013-03-03 21:38:00,
2013-03-03 21:43:00,42.6,36.6,29.70,WNW,292,0.0,0.0,79,0.00,CLR,SKC,0.00,WeatherDisplay:10.37,2013-03-03 21:43:00,
2013-03-03 21:48:00,42.6,36.6,29.70,WNW,292,0.0,0.0,79,0.00,CLR,SKC,0.00,WeatherDisplay:10.37,2013-03-03 21:48:00,
2013-03-03 21:53:00,42.6,36.6,29.70,WNW,292,0.0,0.0,79,0.00,CLR,SKC,0.00,WeatherDisplay:10.37,2013-03-03 21:53:00,
2013-03-03 21:58:00,42.6,36.6,29.70,WNW,292,0.0,0.0,79,0.00,CLR,SKC,0.00,WeatherDisplay:10.37,2013-03-03 21:58:00,
2013-03-03 22:03:00,42.6,36.6,29.70,WNW,292,0.0,0.0,79,0.00,CLR,SKC,0.00,WeatherDisplay:10.37,2013-03-03 22:03:00,
2013-03-03 22:08:00,42.6,36.6,29.70,WNW,292,0.0,0.0,79,0.00,CLR,SKC,0.00,WeatherDisplay:10.37,2013-03-03 22:08:00,
2013-03-03 22:13:00,42.6,36.6,29.70,WNW,292,0.0,0.0,79,0.00,CLR,SKC,0.00,WeatherDisplay:10.37,2013-03-03 22:13:00,
2013-03-03 22:18:00,42.4,36.4,29.70,WNW,292,0.0,0.0,79,0.00,CLR,SKC,0.00,WeatherDisplay:10.37,2013-03-03 22:18:00,
2013-03-03 22:23:00,42.4,36.4,29.70,WNW,292,0.0,0.0,79,0.00,CLR,SKC,0.00,WeatherDisplay:10.37,2013-03-03 22:23:00,
2013-03-03 22:28:00,42.4,36.4,29.70,WNW,292,0.0,0.0,79,0.00,CLR,SKC,0.00,WeatherDisplay:10.37,2013-03-03 22:28:00,
2013-03-03 22:33:00,42.4,36.4,29.69,WNW,292,0.0,0.0,79,0.00,CLR,SKC,0.00,WeatherDisplay:10.37,2013-03-03 22:33:00,
2013-03-03 22:38:00,42.1,36.0,29.69,WNW,292,0.0,0.0,79,0.00,CLR,SKC,0.00,WeatherDisplay:10.37,2013-03-03 22:38:00,
2013-03-03 22:43:00,42.1,36.4,29.69,WNW,292,0.0,0.0,80,0.00,CLR,SKC,0.00,WeatherDisplay:10.37,2013-03-03 22:43:00,
2013-03-03 22:48:00,42.1,36.4,29.69,WNW,292,0.0,0.0,80,0.00,CLR,SKC,0.00,WeatherDisplay:10.37,2013-03-03 22:48:00,
2013-03-03 22:53:00,42.1,36.4,29.68,WNW,292,0.0,0.0,80,0.00,CLR,SKC,0.00,WeatherDisplay:10.37,2013-03-03 22:53:00,
2013-03-03 22:59:00,42.4,36.7,29.68,West,270,0.0,0.0,80,0.00,CLR,SKC,0.00,WeatherDisplay:10.37,2013-03-03 22:59:00,
2013-03-03 23:04:00,42.4,36.7,29.68,West,270,0.0,0.0,80,0.00,CLR,SKC,0.00,WeatherDisplay:10.37,2013-03-03 23:04:00,
2013-03-03 23:09:00,42.4,36.7,29.68,West,270,0.0,0.0,80,0.00,CLR,SKC,0.00,WeatherDisplay:10.37,2013-03-03 23:09:00,
2013-03-03 23:14:00,42.4,36.7,29.68,West,270,0.0,0.0,80,0.00,CLR,SKC,0.00,WeatherDisplay:10.37,2013-03-03 23:14:00,
2013-03-03 23:19:00,42.1,36.0,29.68,West,270,0.0,0.0,79,0.00,CLR,SKC,0.00,WeatherDisplay:10.37,2013-03-03 23:19:00,
2013-03-03 23:24:00,42.1,36.4,29.68,West,270,0.0,0.0,80,0.00,CLR,SKC,0.00,WeatherDisplay:10.37,2013-03-03 23:24:00,
2013-03-03 23:29:00,42.1,36.4,29.68,WNW,292,0.0,0.0,80,0.00,CLR,SKC,0.00,WeatherDisplay:10.37,2013-03-03 23:29:00,
2013-03-03 23:34:00,42.1,36.4,29.67,NW,315,0.0,0.0,80,0.00,CLR,SKC,0.00,WeatherDisplay:10.37,2013-03-03 23:34:00,
2013-03-03 23:39:00,42.1,36.4,29.68,NW,315,0.0,0.0,80,0.00,CLR,SKC,0.00,WeatherDisplay:10.37,2013-03-03 23:39:00,
2013-03-03 23:44:00,41.9,36.2,29.68,NW,315,0.0,0.0,80,0.00,CLR,SKC,0.00,WeatherDisplay:10.37,2013-03-03 23:44:00,
2013-03-03 23:49:00,41.9,36.2,29.67,NW,315,0.0,0.0,80,0.00,CLR,SKC,0.00,WeatherDisplay:10.37,2013-03-03 23:49:00,
2013-03-03 23:54:00,41.7,36.0,29.67,NW,315,0.0,0.0,80,0.00,CLR,SKC,0.00,WeatherDisplay:10.37,2013-03-03 23:54:00,
2013-03-03 23:59:00,41.7,36.0,29.67,NW,315,0.0,0.0,80,0.00,CLR,SKC,0.00,WeatherDisplay:10.37,2013-03-03 23:59:00,